Regional Weather Roundup
Issued by NWS Sterling, VA

Home | Current Version | Previous Version | Text Only | Print | Product List | Glossary Off
Versions: 1 2 3 4 5 6 7 8 9 10 11 12 13 14 15 16 17 18 19 20 21 22 23 24 25 26 27 28 29 30 31 32 33 34 35 36 37 38 39 40 41 42 43 44 45 46 47 48 49 50

000
ASUS41 KLWX 060210
RWRLWX

REGIONAL WEATHER ROUNDUP
NATIONAL WEATHER SERVICE BALTIMORE MD/WASHINGTON DC
900 PM EST FRI FEB 05 2016

Note: "FAIR" indicates few or no clouds below 12,000 feet
with no significant weather and/or obstructions to visibility.
 TC=TEMPERATURE CELSIUS

 * =Non NWS site. Station does not report precipitation (e.g. rain,
    snow, etc.), thunder, or fog.

DCZ001-MDZ009-015-VAZ040>042-051-053>054-060300-
WASHINGTON METRO

CITY           SKY/WX    TMP DP  RH WIND       PRES   REMARKS
WASHINGTON NAT FAIR      35  18  49 N10       30.39S WCI  27
DULLES         FAIR      31  18  58 NW8       30.38S WCI  23
ANDREWS AFB    CLEAR     34  18  52 N10       30.36S WCI  26
FT BELVOIR     FAIR      29  19  67 CALM      30.39R
QUANTICO       FAIR      34  23  64 W3        30.41R
COLLEGE PARK*  FAIR      32  23  69 CALM      30.38S
LEESBURG*      FAIR      34  23  64 N3        30.39S
MANASSAS*      CLEAR     27  23  86 CALM      30.39S
GAITHERSBURG*  CLEAR     30  14  51 NW6       30.40S

$$

MDZ006>007-011-014-060300-
BALTIMORE METRO

CITY           SKY/WX    TMP DP  RH WIND       PRES   REMARKS
BWI AIRPORT    CLEAR     31  19  61 W3        30.37R
MD SCIENCE CTR   N/A     36  18  48 MISG      30.37S
MARTIN STATE   CLEAR     34  23  64 W10       30.38S WCI  26
ANNAPOLIS      CLEAR     36  21  54 NW5       30.38R
FORT MEADE*    CLEAR     30  23  74 CALM      30.40S

$$

MDZ012-015-019>023-060300-
MARYLAND EASTERN SHORE

CITY           SKY/WX    TMP DP  RH WIND       PRES   REMARKS
OCEAN CITY     CLEAR     35  24  64 NW8       30.34S WCI  29
SALISBURY      CLEAR     34  23  64 NW6       30.35S
BAY BRIDGE AP*   N/A     36  21  55 NW9       30.38S WCI  29
CAMBRIDGE*     CLEAR     36  23  60 NW10      30.37R WCI  28
EASTON*        PTCLDY    34  25  69 CALM      30.41

$$

MDZ017>025-060300-
SOUTHERN MARYLAND

CITY           SKY/WX    TMP DP  RH WIND       PRES   REMARKS
PATUXENT RIVER CLEAR     36  21  54 NW12      30.38R WCI  28
ST INIGOES     CLEAR     36  20  52 CALM      30.38R
LEONARDTOWN*   CLEAR     32  21  64 CALM      30.40R

$$

MDZ003>005-060300-
NORTH CENTRAL MARYLAND

CITY           SKY/WX    TMP DP  RH WIND       PRES   REMARKS
FREDERICK*     CLEAR     32  21  64 N3        30.41S
HAGERSTOWN APT CLEAR     32  15  49 CALM      30.37R
WESTMINSTER*   CLEAR     32  21  64 NW3       30.35S

$$

MDZ501>502-060300-
WESTERN MARYLAND

CITY           SKY/WX    TMP DP  RH WIND       PRES   REMARKS
OAKLAND*       CLEAR     21  14  73 W3        30.26F
CUMBERLAND*    CLEAR     32  18  55 CALM      30.42S

$$

VAZ025>031-060300-
SHENANDOAH VALLEY

CITY           SKY/WX    TMP DP  RH WIND       PRES   REMARKS
WINCHESTER*    FAIR      30  19  64 NW6       30.37S
FRONT ROYAL*   FAIR      32  16  51 CALM      30.36S
LURAY*         FAIR      32  16  51 E3        30.36S
NEW MARKET*    FAIR      26  20  78 CALM      30.36S
STAUNTON*      FAIR      32  19  59 CALM      30.37S
WAYNESBORO*    FAIR      31  11  42 CALM      30.34S

$$

WVZ021-048>050-054>055-060300-
EASTERN WEST VIRGINIA PANHANDLE

CITY           SKY/WX    TMP DP  RH WIND       PRES   REMARKS
MARTINSBURG    FAIR      27  16  63 CALM      30.37S
PETERSBURG*    FAIR      28  19  70 CALM      30.39R

$$

VAZ036>039-050-060300-
CENTRAL FOOTHILLS

CITY           SKY/WX    TMP DP  RH WIND       PRES   REMARKS
CHARLOTTESVILL FAIR      36  12  37 CALM      30.37R
CULPEPER*      FAIR      26  21  81 CALM      30.39S
ORANGE*        FAIR      30  23  74 CALM      30.39S
GORDONSVILLE*  FAIR      28  22  79 CALM      30.37S
WARRENTON*     FAIR      26  24  91 CALM      30.38S

$$

VAZ055>057-060300-
NORTH AND CENTRAL PIEDMONT

CITY           SKY/WX    TMP DP  RH WIND       PRES   REMARKS
FREDERICKSBRG* FAIR      29  23  76 CALM      30.39R
STAFFORD*      FAIR      28  18  68 CALM      30.43R

$$

NCZ024-NYZ072-PAZ021-071-VAZ022-071-060300-
OTHER REGIONAL OBSERVATIONS

CITY           SKY/WX    TMP DP  RH WIND       PRES   REMARKS
NEW YORK CITY  CLEAR     34  13  41 NW12G22   30.31R WCI  25
PHILADELPHIA   CLEAR     37  16  42 NW5       30.35R
PITTSBURGH     PTCLDY    29  16  58 CALM      30.34F
ROANOKE        FAIR      32  14  47 NW6       30.39R
RICHMOND       FAIR      35  19  52 CALM      30.39R
RALEIGH        PTCLDY    33  24  69 CALM      30.38S

$$

ANZ530>537-060300-
MARINE OBSERVATIONS

STATION/POSITION TIME  TEMP    WIND        PRES
                       AIR SEA DIR/SP/G
                 (UTC) (F)     (DEG/KT/KT) (MB)
THOMAS PT LIGHT  0100          320/  9       N/A
BALT KEY BRIDGE  0100   38     290/ 12/ 13 1028.4R
COVE POINT       0100   38     350/ 17/ 21 1028.9R
LEWISETTA        0100   39 44  350/ 10/ 14 1028.1R
SOLOMONS ISLAND  0100   38 42  330/  6/  8   N/A

$$




USA.gov is the U.S. government's official web portal to all federal, state and local government web resources and services.